Regional Weather Roundup
Issued by NWS

Home | Current Version | Previous Version | Graphics & Text | Print | Product List | Glossary On
Versions: 1 2 3 4 5 6 7 8 9 10 11 12 13 14 15 16 17 18 19 20 21 22 23 24 25 26 27 28 29 30 31 32 33 34 35 36 37 38 39 40 41 42 43 44 45 46 47 48 49 50
547
ASUS43 KOAX 241102
RWRNE

WEATHER ROUNDUP FOR NEBRASKA
NATIONAL WEATHER SERVICE OMAHA NE
600 AM CDT MON APR 24 2017

NOTES: SATELLITE DATA IS BEING USED TO AUGMENT CLOUD COVER ABOVE
       12000 FEET.
       "FAIR" INDICATES FEW OR NO CLOUDS BELOW 12,000 FEET WITH NO
       SIGNIFICANT WEATHER AND/OR OBSTRUCTIONS TO VISIBILITY.

  * THESE STATIONS DO NOT REPORT WEATHER SUCH AS RAIN...SNOW OR FOG.

NEZ001>004-019>022-054>056-241200-
NEBRASKA PANHANDLE

CITY           SKY/WX    TMP DP  RH WIND       PRES   REMARKS
SCOTTSBLUFF    CLOUDY    52  39  61 W7        29.61F
ALLIANCE       PTCLDY    43  39  86 W8        29.57S
CHADRON        PTCLDY    41  39  93 W10       29.56F
KIMBALL        CLOUDY    52  40  64 NW21G28   29.63F
SIDNEY         CLOUDY    52  39  61 NW22      29.61R
$$

NEZ057>060-069>072-079>082-241200-
SOUTHWEST NEBRASKA

CITY           SKY/WX    TMP DP  RH WIND       PRES   REMARKS
NORTH PLATTE   CLOUDY    49  36  61 SE10      29.55S
IMPERIAL       PTCLDY    41  36  82 NE3       29.53R
LEXINGTON      CLOUDY    51  34  52 SE18      29.57F
MCCOOK         CLOUDY    51  36  56 S10       29.53F
OGALLALA       CLOUDY    43  33  69 CALM      29.55R
$$

NEZ005>010-023>029-035>040-094-241200-
NORTH CENTRAL NEBRASKA

CITY           SKY/WX    TMP DP  RH WIND       PRES   REMARKS
VALENTINE      CLOUDY    53  33  46 S9        29.53F
AINSWORTH      CLOUDY    51  38  61 S14       29.55F
BROKEN BOW     CLOUDY    51  34  52 S15G25    29.57F
O`NEILL        CLOUDY    53  34  47 S16       29.60F
ORD            MOCLDY    52  33  48 S13       29.61F
THEDFORD       MOCLDY    50  37  60 S6        29.56F
$$

NEZ041-046>049-061>064-073>077-083>087-241200-
SOUTH CENTRAL NEBRASKA

CITY           SKY/WX    TMP DP  RH WIND       PRES   REMARKS
GRAND ISLAND   CLOUDY    51  35  54 S20G31    29.65F
AURORA         PTCLDY    52  33  48 S22G28    29.67F
HASTINGS       PTCLDY    52  33  48 S20G30    29.65F
HEBRON         PTCLDY    50  37  59 S18       29.74F
HOLDREGE       CLOUDY    51  33  49 S22G29    29.60F
KEARNEY *      CLOUDY    54  32  43 S25G32    29.61F
YORK           PTCLDY    50  36  57 S20G26    29.70F
$$

NEZ011>018-030>034-042>045-241200-
NORTHEAST NEBRASKA

CITY           SKY/WX    TMP DP  RH WIND       PRES   REMARKS
NORFOLK        CLOUDY    51  34  52 S20G30    29.67F
ALBION         MOCLDY    51  35  55 SE10      29.67F
BLAIR          CLOUDY    54  37  52 S17G25    29.76F
FREMONT        PTCLDY    51  37  60 SE16      29.75S
TEKAMAH        PTCLDY    49  38  65 S10       29.77S
WAYNE          CLOUDY    48  37  64 S13       29.70F
$$

NEZ050>053-065>068-078-088>093-241200-
SOUTHEAST NEBRASKA

CITY           SKY/WX    TMP DP  RH WIND       PRES   REMARKS
LINCOLN        CLOUDY    51  37  58 S15       29.76F
OMAHA EPPLEY   CLOUDY    54  36  50 S21       29.78F
BEATRICE       CLOUDY    52  38  58 S13G22    29.78S
FALLS CITY     CLOUDY    44  38  79 SE9       29.85F
NEBRASKA CITY  CLOUDY    50  32  50 S17       29.82F
PLATTSMOUTH    CLOUDY    51  32  49 SE16      29.79F
$$

NEZ044-045-051>053-067-241200-
OMAHA AREA

CITY           SKY/WX    TMP DP  RH WIND       PRES   REMARKS
OMAHA EPPLEY   CLOUDY    54  36  50 S21       29.78F
BLAIR          CLOUDY    54  37  52 S17G25    29.76F
FREMONT        PTCLDY    51  37  60 SE16      29.75S
MILLARD        CLOUDY    54  38  54 SE13G20   29.78F
OFFUTT AFB     CLOUDY    51  36  55 SE6       29.79F
PLATTSMOUTH    CLOUDY    51  32  49 SE16      29.79F
WAHOO          FAIR      48  37  64 SE13      29.76F
$$




USA.gov is the U.S. government's official web portal to all federal, state and local government web resources and services.